{"data":{"norad_id":57236,"intl_designator":"2023-094U","name":"STARLINK-6315","alt_names":[],"object_type":"PAYLOAD","status":"ACTIVE","operator":null,"country":"US","launch_date":"2023-07-07","launch_site_code":"AFWTR","launch_vehicle":null,"mission":null,"orbit_class":"UNKNOWN","rcs_meters":null,"size_class":null,"mass_kg":null,"dimensions":null,"purposes":["comms"],"wikipedia_slug":null,"has_3d_model":false,"image_url":null,"decayed_at":null,"tle_current":{"epoch":"2026-09-20T13:41:12.650784Z","epoch_age_seconds":118211,"freshness":"FRESH","line1":"1 57236U 23094U   26263.57028531 -.00000532  00000+0 -98025-5 0  9991","line2":"2 57236  43.0044 359.3833 0001336 269.3014  90.7684 15.27576643177041","mean_motion":15.27576643,"eccentricity":0.0001336,"inclination_deg":43.0044,"raan_deg":359.3833,"arg_perigee_deg":269.3014,"mean_anomaly_deg":90.7684,"bstar":-9.8025e-6,"rev_number":17704,"period_min":94.266955874109,"perigee_km":482.14249231835,"apogee_km":483.97580392913,"semimajor_km":6861.1961481237,"source":"CELESTRAK","updated_at":"2026-09-21T09:00:33.588003Z"}}}